DJ3OW-13 Weather Reports


time (UTC)temp
C
wind
direction
speed
KPH
gust
KPH
rain 1hr
cm
rain 24hr
cm
rain mn
cm
humidity
%
barometer
mb
20260510021027 6 0.0 0.0 0.00 0.00 0.00 92 1017.0
20260510020025 6 0.0 0.0 0.00 0.00 0.00 91 1017.1
20260510015103 7 0.0 0.0 0.00 0.00 0.00 90 1017.2
20260510014021 7 45 0.0 3.2 0.00 0.00 0.00 89 1017.3
20260510013019 7 45 1.6 3.2 0.00 0.00 0.00 91 1017.4
20260510012017 7 45 1.6 3.2 0.00 0.00 0.00 93 1017.4
20260510011115 6 23 0.0 3.2 0.00 0.00 0.00 92 1017.6
20260510010153 7 23 0.0 3.2 0.00 0.00 0.00 89 1017.6
20260510005111 8 45 0.0 3.2 0.00 0.00 0.00 88 1017.6
20260510004109 8 45 1.6 3.2 0.00 0.00 0.00 88 1017.6
20260510003106 8 45 0.0 3.2 0.00 0.00 0.00 89 1017.8
20260510002104 8 45 1.6 3.2 0.00 0.00 0.00 89 1018.0
20260510001103 8 45 1.6 3.2 0.00 0.00 0.00 89 1018.1
20260510000101 8 0.0 0.0 0.00 0.00 0.00 89 1018.5
20260509235059 8 45 0.0 3.2 0.00 0.00 0.00 90 1018.3
20260509234116 8 68 0.0 3.2 0.00 0.00 0.00 92 1018.4
20260509233055 8 68 0.0 3.2 0.00 0.00 0.00 95 1018.6
20260509232052 7 68 0.0 3.2 0.00 0.00 0.00 95 1018.8
20260509231050 7 0.0 0.0 0.00 0.00 0.00 95 1018.8
20260509230048 7 0.0 0.0 0.00 0.00 0.00 95 1018.9
20260509225047 7 0.0 3.2 0.00 0.00 0.00 94 1019.1
20260509224044 8 0.0 0.0 0.00 0.00 0.00 94 1019.0
20260509223102 8 0.0 0.0 0.00 0.00 0.00 94 1019.0
20260509222040 8 0.0 3.2 0.00 0.00 0.00 93 1019.0
20260509221038 8 0.0 3.2 0.00 0.00 0.00 93 1019.3
20260509220036 8 68 0.0 3.2 0.00 0.00 0.00 93 1019.3
20260509215114 8 0.0 3.2 0.00 0.00 0.00 93 1019.4
20260509214032 8 0.0 0.0 0.00 0.00 0.00 93 1019.4
20260509213030 8 0.0 0.0 0.00 0.00 0.00 93 1019.5
20260509212028 9 0.0 0.0 0.00 0.00 0.00 92 1019.5
20260509211026 9 68 0.0 3.2 0.00 0.00 0.00 92 1019.6
20260509210024 10 0.0 0.0 0.00 0.00 0.00 91 1019.5
20260509205022 10 0.0 0.0 0.00 0.00 0.00 90 1019.7
20260509204040 10 0.0 0.0 0.00 0.00 0.00 90 1019.8
20260509203018 10 0.0 0.0 0.00 0.00 0.00 90 1019.8
20260509202016 10 68 1.6 3.2 0.00 0.00 0.00 90 1019.9
20260509201114 10 0.0 0.0 0.00 0.00 0.00 90 1019.8
20260509200112 10 0.0 0.0 0.00 0.00 0.00 88 1019.7
20260509195150 10 0.0 0.0 0.00 0.00 0.00 86 1019.7
20260509194148 11 0.0 0.0 0.00 0.00 0.00 84 1019.6
20260509193106 11 0.0 0.0 0.00 0.00 0.00 82 1019.6
20260509192104 12 0.0 3.2 0.00 0.00 0.00 80 1019.5
20260509191102 12 0.0 0.0 0.00 0.00 0.00 78 1019.6
20260509190100 13 0.0 0.0 0.00 0.00 0.00 77 1019.5
20260509185058 13 0.0 0.0 0.00 0.00 0.00 75 1019.4
20260509184056 13 0.0 0.0 0.00 0.00 0.00 72 1019.3
20260509183054 15 68 0.0 3.2 0.00 0.00 0.00 70 1019.4
20260509182052 15 68 0.0 3.2 0.00 0.00 0.00 68 1019.5
20260509181050 15 0.0 3.2 0.00 0.00 0.00 68 1019.5
20260509180048 16 68 0.0 3.2 0.00 0.00 0.00 68 1019.4
20260509175046 16 0.0 3.2 0.00 0.00 0.00 68 1019.5
20260509174044 16 68 1.6 6.4 0.00 0.00 0.00 69 1019.6
20260509173042 16 74 1.6 6.4 0.00 0.00 0.00 69 1019.5
20260509172040 15 78 3.2 6.4 0.00 0.00 0.00 69 1019.5
20260509171038 16 74 1.6 6.4 0.00 0.00 0.00 69 1019.5
20260509170036 15 74 1.6 6.4 0.00 0.00 0.00 70 1019.5
20260509165034 15 68 3.2 6.4 0.00 0.00 0.00 69 1019.6
20260509164032 15 88 3.2 6.4 0.00 0.00 0.00 69 1019.6
20260509163030 15 71 3.2 6.4 0.00 0.00 0.00 69 1019.8
20260509162027 16 82 3.2 12.9 0.00 0.00 0.00 68 1019.7
20260509161026 16 74 3.2 9.7 0.00 0.00 0.00 68 1019.8
20260509160024 16 68 3.2 6.4 0.00 0.00 0.00 66 1019.8
20260509155022 16 68 1.6 6.4 0.00 0.00 0.00 67 1019.9
20260509154020 16 61 1.6 6.4 0.00 0.00 0.00 68 1020.1
20260509153018 16 69 3.2 6.4 0.00 0.00 0.00 66 1020.2
20260509152016 16 57 1.6 6.4 0.00 0.00 0.00 66 1020.2
20260509151114 16 68 0.0 3.2 0.00 0.00 0.00 66 1020.3
20260509150112 16 70 3.2 11.3 0.00 0.00 0.00 65 1020.3
20260509145150 16 79 3.2 14.5 0.00 0.00 0.00 64 1020.5
20260509144148 17 59 3.2 9.7 0.00 0.00 0.00 62 1020.6
20260509143106 17 68 3.2 9.7 0.00 0.00 0.00 62 1020.7
20260509142103 17 80 4.8 12.9 0.00 0.00 0.00 62 1020.7
20260509141102 17 67 4.8 14.5 0.00 0.00 0.00 62 1020.9
20260509140059 17 50 3.2 11.3 0.00 0.00 0.00 63 1021.1
20260509135058 16 45 3.2 9.7 0.00 0.00 0.00 66 1021.1
20260509134056 16 45 1.6 11.3 0.00 0.00 0.00 68 1021.2
20260509133113 15 45 1.6 6.4 0.00 0.00 0.00 68 1021.2
20260509132051 15 45 1.6 6.4 0.00 0.00 0.00 69 1021.3
20260509131049 15 45 3.2 9.7 0.00 0.00 0.00 67 1021.4
20260509130047 15 39 1.6 6.4 0.00 0.00 0.00 68 1021.5
20260509125045 15 52 3.2 9.7 0.00 0.00 0.00 67 1021.7
20260509124043 15 38 1.6 6.4 0.00 0.00 0.00 63 1021.7
20260509123041 15 45 1.6 6.4 0.00 0.00 0.00 63 1021.8
20260509122039 15 45 1.6 6.4 0.00 0.00 0.00 66 1022.0
20260509121037 15 45 1.6 11.3 0.00 0.00 0.00 67 1021.9
20260509120035 14 45 1.6 6.4 0.00 0.00 0.00 68 1022.0
20260509115033 15 36 1.6 6.4 0.00 0.00 0.00 69 1022.0
20260509114031 15 48 3.2 9.7 0.00 0.00 0.00 67 1022.2
20260509113029 15 46 1.6 9.7 0.00 0.00 0.00 68 1022.2
20260509112027 15 54 3.2 11.3 0.00 0.00 0.00 68 1022.3
20260509111025 15 26 3.2 6.4 0.00 0.00 0.00 68 1022.2
20260509110023 15 30 3.2 6.4 0.00 0.00 0.00 69 1022.3
20260509105021 15 37 3.2 9.7 0.00 0.00 0.00 70 1022.4
20260509104019 14 23 3.2 9.7 0.00 0.00 0.00 70 1022.4
20260509103037 14 23 3.2 6.4 0.00 0.00 0.00 71 1022.4
20260509102035 14 23 1.6 3.2 0.00 0.00 0.00 74 1022.5
20260509101113 14 23 1.6 6.4 0.00 0.00 0.00 74 1022.6
20260509100111 14 23 1.6 6.4 0.00 0.00 0.00 73 1022.4
20260509095109 14 26 3.2 6.4 0.00 0.00 0.00 74 1022.6
20260509094107 14 41 3.2 11.3 0.00 0.00 0.00 74 1022.6
20260509093105 14 20 3.2 6.4 0.00 0.00 0.00 75 1022.6
20260509092103 14 23 0.0 3.2 0.00 0.00 0.00 76 1022.6
20260509091101 13 23 1.6 3.2 0.00 0.00 0.00 77 1022.6
20260509090059 13 35 1.6 3.2 0.00 0.00 0.00 78 1022.6
20260509085117 13 23 1.6 3.2 0.00 0.00 0.00 81 1022.5
20260509084055 13 23 1.6 3.2 0.00 0.00 0.00 80 1022.6
20260509083053 12 31 3.2 11.3 0.00 0.00 0.00 80 1022.6
20260509082051 12 23 1.6 6.4 0.00 0.00 0.00 81 1022.6
20260509081049 13 23 1.6 6.4 0.00 0.00 0.00 79 1022.7
20260509080047 12 23 0.0 3.2 0.00 0.00 0.00 83 1022.6
20260509075045 12 23 0.0 3.2 0.00 0.00 0.00 83 1022.5
20260509074043 11 0.0 3.2 0.00 0.00 0.00 84 1022.5
20260509073041 11 23 0.0 3.2 0.00 0.00 0.00 87 1022.5
20260509072039 11 23 0.0 3.2 0.00 0.00 0.00 88 1022.5
20260509071037 10 23 0.0 3.2 0.00 0.00 0.00 89 1022.3
20260509070035 10 0.0 0.0 0.00 0.00 0.00 91 1022.3
20260509065033 10 23 0.0 3.2 0.00 0.00 0.00 91 1022.3
20260509064031 10 23 0.0 3.2 0.00 0.00 0.00 93 1022.2
20260509063029 10 0.0 0.0 0.00 0.00 0.00 94 1022.1
20260509062026 9 0.0 0.0 0.00 0.00 0.00 94 1022.1
20260509061025 9 0.0 0.0 0.00 0.00 0.00 95 1022.1
20260509060023 9 0.0 0.0 0.00 0.00 0.00 96 1022.1
20260509055041 8 0.0 3.2 0.00 0.00 0.00 96 1022.2
20260509054019 8 23 0.0 3.2 0.00 0.00 0.00 97 1022.1
20260509053017 8 0.0 0.0 0.00 0.00 0.00 97 1022.1
20260509052035 8 0.0 0.0 0.00 0.00 0.00 97 1021.9
20260509051113 8 0.0 0.0 0.00 0.00 0.00 97 1022.0
20260509050111 8 0.0 0.0 0.00 0.00 0.00 97 1021.8
20260509045108 8 0.0 0.0 0.00 0.00 0.00 97 1021.8
20260509044106 8 0.0 0.0 0.00 0.00 0.00 97 1021.8
20260509043105 8 0.0 0.0 0.00 0.00 0.00 97 1021.7
20260509042123 8 0.0 0.0 0.00 0.00 0.00 97 1021.7
20260509041100 8 0.0 3.2 0.00 0.00 0.00 97 1021.8
20260509040059 8 0.0 0.0 0.00 0.00 0.00 97 1021.8
20260509035057 8 0.0 0.0 0.00 0.00 0.00 97 1021.8
20260509034055 8 0.0 0.0 0.00 0.00 0.00 97 1021.8
20260509033053 8 0.0 0.0 0.00 0.00 0.00 97 1021.9
20260509032051 8 0.0 0.0 0.00 0.00 0.00 97 1022.1
20260509031048 8 0.0 0.0 0.00 0.00 0.00 97 1022.1
20260509030047 8 0.0 0.0 0.00 0.00 0.00 97 1022.1
20260509025044 8 0.0 0.0 0.00 0.00 0.00 97 1022.3
20260509024042 8 0.0 0.0 0.00 0.00 0.00 97 1022.2
20260509023100 8 0.0 0.0 0.00 0.00 0.00 97 1022.3
20260509022039 8 0.0 0.0 0.00 0.00 0.00 97 1022.3